Lexington Weather

Lexington, Massachusetts, USA

31°F
1/23/2020 10:10am 
  • Lexington Conditions: Clear
  • Temperature: 31.3°F / -0.4°CWarmer 4.5°F than last hour.
  • Dew Point: 20.8°FIncreased 1.6°Fsince last hour.
  • Relative Humidity: 65%Decreased 8.0% since last hour.
  • Wind: Calm, 10-min avg: Calm, gust: 1 mph
  • Barometer: 30.34 in Steady
  • Visibility: 10 miles
  • Snow Today: 0.0 in
  •   

Regional Weather Roundup
for Boston / Norton, MA

        
000
ASUS41 KBOX 211710
RWRBOX

REGIONAL WEATHER ROUNDUP
NATIONAL WEATHER SERVICE BOSTON/NORTON MA
1200 PM EST TUE JAN 21 2020

NOTE:  "FAIR" INDICATES FEW OR NO CLOUDS BELOW 12,000 FEET WITH NO 
SIGNIFICANT WEATHER AND/OR OBSTRUCTIONS TO VISIBILITY.

MAZALL-211800-
EASTERN MASSACHUSETTS
  
CITY           SKY/WX    TMP DP  RH WIND       PRES   REMARKS
BOSTON         FAIR      26   1  34 VRB6      30.41F WCI  19          
BEVERLY        FAIR      23   5  46 NW5       30.39F WCI  17          
LAWRENCE       FAIR      20   0  41 VRB3      30.41F                  
BEDFORD        FAIR      21  -1  38 NW7       30.39F WCI  12          
BLUE HILL        N/A     20   2  45 W7        30.34F WCI  11          
NORWOOD        FAIR      27   0  31 N8        30.40F WCI  19          
MARSHFIELD     FAIR      25   7  46 VRB6G14   30.39F WCI  18          
PLYMOUTH       FAIR      25   4  40 N5        30.38F WCI  19          
TAUNTON        FAIR      25   2  37 NW8       30.39F WCI  16          
NEW BEDFORD    FAIR      27   2  34 N8        30.37F WCI  19          
$$

MAZALL-211800-
CAPE COD AND THE ISLANDS
  
CITY           SKY/WX    TMP DP  RH WIND       PRES   REMARKS
FALMOUTH       SUNNY     27   9  46 N5        30.37F WCI  21          
HYANNIS        FAIR      30  16  56 N15       30.35F WCI  19          
CHATHAM        FAIR      31  20  63 VRB6      30.36F WCI  25          
PROVINCETOWN   FAIR      28  21  75 NW14      30.38F WCI  17          
NANTUCKET      PTSUNNY   33  22  63 N14       30.35F WCI  23          
MARTHAS VNYRD  FAIR      28  11  48 N10       30.37F WCI  19          
$$
 
MAZALL-211800-
CENTRAL AND WESTERN MASSACHUSETTS
  
CITY           SKY/WX    TMP DP  RH WIND       PRES   REMARKS
WORCESTER      FAIR      21  -1  38 VRB6      30.33F WCI  13          
FITCHBURG      FAIR      24  -1  33 NW7       30.39F WCI  16          
ORANGE         FAIR      22  -1  36 N9G18     30.39F WCI  12          
SPRINGFIELD    MOSUNNY   22   1  38 NW6       30.40F WCI  15          
WESTFIELD      FAIR      26   2  35 N3        30.40F                  
NORTH ADAMS    FAIR      17  -1  45 VRB6      30.42F WCI   9          
PITTSFIELD     FAIR      17   1  49 W5        30.34F WCI  10          
$$
 
RIZALL-211800-
RHODE ISLAND
  
CITY           SKY/WX    TMP DP  RH WIND       PRES   REMARKS
PROVIDENCE     FAIR      26   1  34 N12       30.40F WCI  16          
NEWPORT        FAIR      25   2  37 N13G18    30.38F WCI  14          
BLOCK ISLAND   FAIR      25   5  42 N7        30.40F WCI  17          
SMITHFIELD     FAIR      22   3  44 N10       30.37F WCI  11          
WESTERLY       FAIR      30   0  27 VRB7      30.40F WCI  23          
$$
 
CTZALL-211800-
CONNECTICUT
  
CITY           SKY/WX    TMP DP  RH WIND       PRES   REMARKS
BRADLEY INTL   PTSUNNY   25   3  38 NE6       30.41F WCI  18          
HARTFORD       FAIR      25   3  38 NE5       30.43F WCI  19          
BRIDGEPORT     FAIR      30   4  33 NW10      30.43F WCI  21          
DANBURY        FAIR      24   6  46 N7        30.41F WCI  16          
GROTON         FAIR      27   3  35 N8        30.40F WCI  19          
NEW HAVEN      FAIR      30   5  34 NW6       30.42F WCI  24          
CHESTER        NOT AVBL                                               
MERIDEN        FAIR      27   6  41 N8        30.42F WCI  19          
WILLIMANTIC    FAIR      25   3  38 NW3       30.41F                  
OXFORD         FAIR      24   5  44 NW8       30.38F WCI  15          
$$

MEZ002-015-021-024-NHZ003-005-008-011-012-014-VTZ005-008-211800-
NORTHERN NEW ENGLAND
  
CITY           SKY/WX    TMP DP  RH WIND       PRES   REMARKS
PORTLAND ME    PTSUNNY   20   1  43 W5        30.41F WCI  13          
BANGOR ME      FAIR      14   0  53 NW12      30.38F WCI   0          
CONCORD NH     FAIR      19   0  43 NW7       30.39F WCI  10          
MANCHESTER NH  PTSUNNY   23   0  36 N6        30.38F WCI  16          
NASHUA NH      FAIR      23   3  42 NW10      30.40F WCI  12          
PORTSMOUTH NH  MOSUNNY   22   0  37 CALM      30.38F                  
JAFFREY NH     FAIR      21  -2  36 VRB7      30.33F WCI  12          
KEENE NH       FAIR      21  13  71 N6        30.41F WCI  13          
BURLINGTON VT  PTSUNNY   15   4  61 CALM      30.43F                  
MT. WASHINGTON PTSUNNY   10  -9  40 NW23        N/A  WCI -10          
$$

NYZ052-076-211800-
EASTERN NEW YORK
  
CITY           SKY/WX    TMP DP  RH WIND       PRES   REMARKS
ALBANY         PTSUNNY   20   3  48 N8        30.48F WCI  10          
NEW YORK CITY  FAIR      28  10  46 NW7       30.44F WCI  21          
$$
 
ANZALL-211800-
MARINE OBSERVATIONS
  
STATION/POSITION TIME  TEMP    WIND        PRES    VSBY  WAVE
                       AIR SEA DIR/SP/G                  HT/PER
                 (UTC) (F)     (DEG/KT/KT) (MB)    (MI)  (FT/S)
BOSTON BUOY      1650   22 42  320/  8/ 12 1029.0F         2/10
BUZZARDS BAY     1600   23     350/ 14/ 15 1029.7F
NANTUCKET SOUND  1640                      1028.5
MASS BAY-STELLWA 1604   22 42  350/ 10/ 14 1027.9F  1 5/8  2/ 3
ISLE OF SHOALS   1600   19     340/  7/  8 1029.8F
S OF BLOCK IS    1700      45                N/A           3/ 5
$$

......................KEY.........................
  SKY/WX - SKY CONDITION/PRESENT WEATHER
  TMP    - TEMPERATURE IN FAHRENHEIT
  DWPT   - DEWPOINT IN FAHRENHEIT
  RH     - RELATIVE HUMIDITY IN PERCENT
  WIND   - DIRECTION AND SPEED IN MPH
  PRES   - MEAN SEA LEVEL PRESSURE IN INCHES OF HG
  WCI    - WIND CHILL INDEX
  VSB    - VISIBILITY IN MILES
  HX     - HEAT INDEX
  TC     - TEMPERATURE IN CELSIUS
  VRB    - VARIABLE WIND DIRECTION
  N/A    - NOT AVAILABLE
  
      

Other recent Regional Weather Roundups

Thu Jan 23, 9:10am

Thu Jan 23, 9:00am

Thu Jan 23, 8:10am

Thu Jan 23, 8:00am

Thu Jan 23, 7:10am

Thu Jan 23, 7:01am

Thu Jan 23, 6:10am

Thu Jan 23, 6:00am

Thu Jan 23, 5:10am

Thu Jan 23, 5:00am

Thu Jan 23, 4:10am

Thu Jan 23, 4:01am

Thu Jan 23, 3:10am

Thu Jan 23, 3:00am

Thu Jan 23, 2:10am

Thu Jan 23, 2:00am

Thu Jan 23, 1:10am

Thu Jan 23, 1:00am

Thu Jan 23, 12:10am

Thu Jan 23, 12:00am

Wed Jan 22, 11:10pm

Wed Jan 22, 11:01pm

Wed Jan 22, 10:10pm

Wed Jan 22, 10:00pm

Wed Jan 22, 9:10pm

Wed Jan 22, 9:00pm

Wed Jan 22, 8:10pm

Wed Jan 22, 8:01pm

Wed Jan 22, 7:10pm

Wed Jan 22, 7:00pm

Wed Jan 22, 6:10pm

Wed Jan 22, 6:01pm

Wed Jan 22, 5:10pm

Wed Jan 22, 5:00pm

Wed Jan 22, 4:10pm

Wed Jan 22, 4:00pm

Wed Jan 22, 3:10pm

Wed Jan 22, 3:00pm

Wed Jan 22, 2:10pm

Wed Jan 22, 2:00pm

Wed Jan 22, 1:10pm

Wed Jan 22, 1:00pm

Wed Jan 22, 12:10pm

Wed Jan 22, 12:00pm

Wed Jan 22, 11:10am

Wed Jan 22, 11:00am

Wed Jan 22, 10:10am

Wed Jan 22, 10:01am

Wed Jan 22, 9:10am

Wed Jan 22, 9:00am

Wed Jan 22, 8:10am

Wed Jan 22, 8:00am

Wed Jan 22, 7:10am

Wed Jan 22, 7:00am

Wed Jan 22, 6:10am

Wed Jan 22, 6:00am

Wed Jan 22, 5:10am

Wed Jan 22, 5:00am

Wed Jan 22, 4:10am

Wed Jan 22, 4:00am

Wed Jan 22, 3:10am

Wed Jan 22, 3:01am

Wed Jan 22, 2:10am

Wed Jan 22, 2:00am

Wed Jan 22, 1:10am

Wed Jan 22, 1:00am

Wed Jan 22, 12:10am

Wed Jan 22, 12:00am

Tue Jan 21, 11:10pm

Tue Jan 21, 11:00pm

Tue Jan 21, 10:10pm

Tue Jan 21, 10:00pm

Tue Jan 21, 9:10pm

Tue Jan 21, 9:01pm

Tue Jan 21, 8:10pm

Tue Jan 21, 8:00pm

Tue Jan 21, 7:10pm

Tue Jan 21, 7:00pm

Tue Jan 21, 6:10pm

Tue Jan 21, 6:01pm

Tue Jan 21, 5:10pm

Tue Jan 21, 5:00pm

Tue Jan 21, 4:10pm

Tue Jan 21, 4:00pm

Tue Jan 21, 3:10pm

Tue Jan 21, 3:01pm

Tue Jan 21, 2:10pm

Tue Jan 21, 2:00pm

Tue Jan 21, 1:10pm

Tue Jan 21, 1:00pm

Tue Jan 21, 12:00pm

Tue Jan 21, 11:10am

Tue Jan 21, 11:00am

Tue Jan 21, 10:10am

Tue Jan 21, 10:00am

Tue Jan 21, 9:10am

Tue Jan 21, 9:00am

Tue Jan 21, 8:10am

Tue Jan 21, 8:00am

Tue Jan 21, 7:10am

Tue Jan 21, 7:00am

Tue Jan 21, 6:10am

Tue Jan 21, 6:00am

Tue Jan 21, 5:10am

Tue Jan 21, 5:00am

Tue Jan 21, 4:10am

Tue Jan 21, 4:00am

Tue Jan 21, 3:10am

Tue Jan 21, 3:00am

Tue Jan 21, 2:10am

Tue Jan 21, 2:01am

Tue Jan 21, 1:10am

Tue Jan 21, 1:00am

Tue Jan 21, 12:10am

Tue Jan 21, 12:00am

Mon Jan 20, 11:10pm

Mon Jan 20, 11:00pm

Mon Jan 20, 10:10pm

Mon Jan 20, 10:00pm

Mon Jan 20, 9:10pm

Mon Jan 20, 9:00pm

Mon Jan 20, 8:10pm

Mon Jan 20, 8:00pm

Mon Jan 20, 7:10pm

Mon Jan 20, 7:00pm

Mon Jan 20, 6:10pm

Mon Jan 20, 6:00pm

Mon Jan 20, 5:10pm

Mon Jan 20, 5:00pm

Mon Jan 20, 4:10pm

Mon Jan 20, 4:01pm

Mon Jan 20, 3:10pm

Mon Jan 20, 3:00pm

Mon Jan 20, 2:10pm

Mon Jan 20, 2:00pm

Mon Jan 20, 1:10pm

Mon Jan 20, 1:00pm

Mon Jan 20, 12:10pm

Mon Jan 20, 12:00pm

Mon Jan 20, 11:10am

Mon Jan 20, 11:00am

Mon Jan 20, 10:10am

Mon Jan 20, 10:00am

Meta data:

ID: 6658090c-c8f8-4cb8-a958-7194fac99630
Link: https://api.weather.gov/products/6658090c-c8f8-4cb8-a958-7194fac99630